TimeEDT,TemperatureF,Dew PointF,Humidity,Sea Level PressureIn,VisibilityMPH,Wind Direction,Wind SpeedMPH,Gust SpeedMPH,PrecipitationIn,Events,Conditions,WindDirDegrees,DateUTC
12:15 AM,70.7,-9999,N/A,30.19,10.0,Calm,Calm,-,N/A,,Clear,0,2012-10-05 04:15:00
12:35 AM,70.3,-9999,N/A,30.18,5.0,Calm,Calm,-,N/A,,Haze,0,2012-10-05 04:35:00
12:55 AM,69.8,-9999,N/A,30.17,7.0,Calm,Calm,-,N/A,,Clear,0,2012-10-05 04:55:00
1:15 AM,69.8,-9999,N/A,30.17,4.0,Calm,Calm,-,N/A,,Haze,0,2012-10-05 05:15:00
1:35 AM,70.0,-9999,N/A,30.17,3.0,Calm,Calm,-,N/A,,Scattered Clouds,0,2012-10-05 05:35:00
1:55 AM,69.8,-9999,N/A,30.17,7.0,Calm,Calm,-,N/A,,Scattered Clouds,0,2012-10-05 05:55:00
2:15 AM,70.0,-9999,N/A,30.16,7.0,Calm,Calm,-,N/A,,Scattered Clouds,0,2012-10-05 06:15:00
2:55 AM,70.2,-9999,N/A,30.15,4.0,Calm,Calm,-,N/A,,Haze,0,2012-10-05 06:55:00
3:15 AM,70.0,-9999,N/A,30.15,2.0,Calm,Calm,-,N/A,,Overcast,0,2012-10-05 07:15:00
3:35 AM,70.2,-9999,N/A,30.15,4.0,Calm,Calm,-,N/A,,Haze,0,2012-10-05 07:35:00
3:55 AM,70.0,-9999,N/A,30.15,4.0,Calm,Calm,-,N/A,,Haze,0,2012-10-05 07:55:00
4:15 AM,69.8,-9999,N/A,30.15,1.5,North,3.5,-,N/A,,Overcast,350,2012-10-05 08:15:00
4:35 AM,69.3,-9999,N/A,30.15,0.5,Calm,Calm,-,N/A,Fog,Fog,0,2012-10-05 08:35:00
4:55 AM,69.3,-9999,N/A,30.15,0.2,Calm,Calm,-,N/A,Fog,Fog,0,2012-10-05 08:55:00
5:15 AM,69.6,-9999,N/A,30.15,0.2,Calm,Calm,-,N/A,Fog,Fog,0,2012-10-05 09:15:00
5:35 AM,69.8,-9999,N/A,30.15,0.5,Calm,Calm,-,N/A,Fog,Fog,0,2012-10-05 09:35:00
5:55 AM,69.6,-9999,N/A,30.15,0.8,Calm,Calm,-,N/A,,Overcast,0,2012-10-05 09:55:00
6:15 AM,69.3,-9999,N/A,30.16,0.8,Calm,Calm,-,N/A,,Overcast,0,2012-10-05 10:15:00
6:35 AM,69.3,-9999,N/A,30.16,1.5,North,3.5,-,N/A,,Overcast,350,2012-10-05 10:35:00
6:55 AM,69.3,-9999,N/A,30.15,0.8,Calm,Calm,-,N/A,,Overcast,0,2012-10-05 10:55:00
7:35 AM,69.4,-9999,N/A,30.16,0.2,Calm,Calm,-,N/A,Fog,Fog,0,2012-10-05 11:35:00
7:55 AM,69.4,-9999,N/A,30.16,0.2,Calm,Calm,-,N/A,Fog,Fog,0,2012-10-05 11:55:00
8:15 AM,69.6,-9999,N/A,30.16,0.2,Calm,Calm,-,N/A,Fog,Fog,0,2012-10-05 12:15:00
8:35 AM,69.8,-9999,N/A,30.16,1.0,North,3.5,-,N/A,,Overcast,10,2012-10-05 12:35:00
8:55 AM,70.2,-9999,N/A,30.16,7.0,NNE,3.5,-,N/A,,Overcast,30,2012-10-05 12:55:00
9:15 AM,70.7,-9999,N/A,30.16,10.0,NNE,4.6,-,N/A,,Overcast,20,2012-10-05 13:15:00
9:35 AM,71.1,-9999,N/A,30.16,10.0,NNE,3.5,-,N/A,,Overcast,30,2012-10-05 13:35:00
9:55 AM,72.0,-9999,N/A,30.16,10.0,Calm,Calm,-,N/A,,Overcast,0,2012-10-05 13:55:00
10:15 AM,73.2,-9999,N/A,30.16,10.0,North,3.5,-,N/A,,Overcast,360,2012-10-05 14:15:00
10:35 AM,74.5,-9999,N/A,30.17,10.0,Calm,Calm,-,N/A,,Overcast,0,2012-10-05 14:35:00
10:55 AM,75.0,-9999,N/A,30.16,10.0,NNW,4.6,-,N/A,,Overcast,340,2012-10-05 14:55:00
11:15 AM,76.1,-9999,N/A,30.16,10.0,Calm,Calm,-,N/A,,Overcast,0,2012-10-05 15:15:00
11:35 AM,77.7,76.3,95,30.15,10.0,NNE,5.8,-,N/A,,Overcast,20,2012-10-05 15:35:00
11:55 AM,78.4,75.4,90,30.15,10.0,NNW,3.5,-,N/A,,Overcast,340,2012-10-05 15:55:00
12:15 PM,79.0,75.0,88,30.14,10.0,Calm,Calm,-,N/A,,Overcast,0,2012-10-05 16:15:00
12:35 PM,79.3,74.5,85,30.14,10.0,NE,5.8,-,N/A,,Overcast,50,2012-10-05 16:35:00
12:55 PM,79.9,74.5,83,30.13,10.0,NNE,6.9,-,N/A,,Overcast,20,2012-10-05 16:55:00
1:15 PM,80.2,73.9,81,30.12,10.0,NNE,5.8,-,N/A,,Overcast,20,2012-10-05 17:15:00
1:35 PM,81.0,73.9,79,30.12,10.0,North,4.6,-,N/A,,Mostly Cloudy,360,2012-10-05 17:35:00
1:55 PM,81.3,73.6,77,30.11,10.0,Calm,Calm,-,N/A,,Mostly Cloudy,0,2012-10-05 17:55:00
2:15 PM,81.1,72.9,76,30.10,10.0,NNE,4.6,-,N/A,,Overcast,20,2012-10-05 18:15:00
2:35 PM,81.5,72.5,74,30.09,10.0,Calm,Calm,-,N/A,,Overcast,0,2012-10-05 18:35:00
2:55 PM,81.3,72.7,75,30.08,10.0,NNW,3.5,-,N/A,,Overcast,330,2012-10-05 18:55:00
3:15 PM,81.5,73.0,75,30.08,10.0,North,3.5,-,N/A,,Overcast,360,2012-10-05 19:15:00
3:35 PM,81.3,72.9,75,30.06,10.0,North,3.5,-,N/A,,Overcast,360,2012-10-05 19:35:00
4:15 PM,81.5,72.7,74,30.05,10.0,North,4.6,-,N/A,,Scattered Clouds,360,2012-10-05 20:15:00
4:55 PM,82.0,72.3,72,30.03,10.0,North,3.5,-,N/A,,Scattered Clouds,10,2012-10-05 20:55:00
5:15 PM,81.9,71.8,71,30.04,10.0,NE,3.5,-,N/A,,Clear,50,2012-10-05 21:15:00
5:35 PM,82.0,72.0,71,30.04,10.0,NNE,3.5,-,N/A,,Scattered Clouds,20,2012-10-05 21:35:00
5:55 PM,81.1,71.8,73,30.03,10.0,Calm,Calm,-,N/A,,Scattered Clouds,0,2012-10-05 21:55:00
6:15 PM,80.2,72.5,77,30.03,10.0,Calm,Calm,-,N/A,,Clear,0,2012-10-05 22:15:00
6:35 PM,79.9,73.4,80,30.03,10.0,Calm,Calm,-,N/A,,Clear,0,2012-10-05 22:35:00
6:55 PM,78.6,75.9,91,30.03,10.0,Calm,Calm,-,N/A,,Clear,0,2012-10-05 22:55:00
7:15 PM,76.8,77.2,100,30.03,10.0,Calm,Calm,-,N/A,,Clear,0,2012-10-05 23:15:00
7:35 PM,75.4,-9999,N/A,30.03,10.0,Calm,Calm,-,N/A,,Clear,0,2012-10-05 23:35:00
7:55 PM,75.0,-9999,N/A,30.03,10.0,Calm,Calm,-,N/A,,Clear,0,2012-10-05 23:55:00
8:15 PM,74.3,-9999,N/A,30.04,10.0,Calm,Calm,-,N/A,,Clear,0,2012-10-06 00:15:00
8:55 PM,73.4,-9999,N/A,30.05,10.0,Calm,Calm,-,N/A,,Clear,0,2012-10-06 00:55:00
9:15 PM,73.4,-9999,N/A,30.04,10.0,Calm,Calm,-,N/A,,Clear,0,2012-10-06 01:15:00
9:35 PM,73.0,-9999,N/A,30.04,10.0,Calm,Calm,-,N/A,,Clear,0,2012-10-06 01:35:00
9:55 PM,72.7,-9999,N/A,30.04,10.0,Calm,Calm,-,N/A,,Scattered Clouds,0,2012-10-06 01:55:00
10:15 PM,72.7,-9999,N/A,30.04,10.0,Calm,Calm,-,N/A,,Scattered Clouds,0,2012-10-06 02:15:00
10:35 PM,73.2,-9999,N/A,30.05,10.0,South,4.6,-,N/A,,Clear,170,2012-10-06 02:35:00
10:55 PM,73.4,-9999,N/A,30.05,10.0,South,3.5,-,N/A,,Clear,190,2012-10-06 02:55:00
11:15 PM,73.2,-9999,N/A,30.04,10.0,South,3.5,-,N/A,,Clear,180,2012-10-06 03:15:00
11:35 PM,72.9,-9999,N/A,30.04,10.0,Calm,Calm,-,N/A,,Clear,0,2012-10-06 03:35:00
11:55 PM,72.7,-9999,N/A,30.04,10.0,Calm,Calm,-,N/A,,Clear,0,2012-10-06 03:55:00